Temp
19 18 17 17 17 16 16 16 16 16 16 16 17 17 17 18 18 19 19 20 20 20 20 19 20 20 20 20 20 21 22 21 21 23 24 24 22 22 23 23 23 23 23
18 17 16 16 16 16 16 16 16 16 16 16 16 16 17 17 17 18 19 19 20 20 20 19 19 19 19 19 19 19 20 21 22 22 23 24 23 22 22 22 22 23 23
16 16 16 16 16 16 16 16 16 16 16 16 16 16 16 16 16 17 18 18 19 20 20 20 19 19 19 19 19 19 20 20 21 22 23 24 23 23 22 21 22 22 22
17 17 16 16 16 16 16 16 16 16 16 16 16 16 16 15 15 16 17 18 18 19 20 20 20 20 19 18 18 19 19 20 20 20 21 23 23 23 22 23 23 22 23
17 16 16 16 16 16 16 16 16 16 16 16 16 16 15 15 15 15 16 18 18 19 19 20 20 20 19 19 19 19 19 19 19 19 19 20 23 22 22 23 23 24 24
16 16 16 16 16 16 16 16 16 16 16 16 15 14 14 14 15 15 15 16 17 18 19 19 20 19 18 18 19 20 19 19 19 19 19 20 21 21 22 23 24 24 25
15 16 16 16 16 16 16 16 16 16 15 15 14 12 14 15 15 15 15 15 16 17 18 19 20 20 18 17 17 18 18 19 20 20 20 20 21 21 21 21 22 23 23
16 16 16 16 16 16 16 16 16 16 15 14 13 13 14 15 15 15 15 15 16 17 18 19 20 19 18 18 18 18 18 19 18 19 19 20 20 20 20 21 21 21 22
16 16 16 16 16 16 16 16 16 16 15 13 13 13 12 13 14 15 16 16 17 17 17 18 18 18 17 18 18 18 18 19 19 19 20 20 20 20 20 20 20 21 23
16 16 15 15 16 16 15 14 15 16 15 14 13 13 12 12 12 13 15 16 16 17 17 17 17 17 16 17 17 18 19 19 18 18 19 19 19 19 19 19 20 20 24
17 16 16 16 15 15 15 15 15 15 15 15 14 13 12 12 12 13 15 15 16 17 17 16 16 16 16 16 16 17 19 19 18 18 19 19 19 18 18 19 19 20 22
16 16 17 17 16 15 16 16 15 15 15 15 14 13 13 13 12 13 15 15 16 16 16 16 16 16 16 16 16 16 17 17 17 17 17 20 20 20 20 19 18 19 19
17 17 17 17 16 16 18 17 16 16 15 16 14 13 14 13 13 13 13 15 16 16 16 16 16 16 16 15 16 16 16 16 16 16 17 17 18 19 18 18 18 18 18
17 17 17 17 17 18 18 17 16 17 16 15 14 13 13 13 13 15 12 14 15 15 15 15 15 15 15 15 16 16 14 15 16 16 17 17 17 18 17 17 17 17 17
17 17 18 19 18 18 17 17 17 16 15 12 15 13 12 12 13 14 14 15 14 15 15 15 15 16 15 14 13 13 14 13 14 14 15 15 15 15 15 16 17 16 16
17 19 19 18 19 19 17 18 17 17 15 13 13 14 15 14 15 14 15 15 16 17 17 18 18 17 16 14 12 13 13 13 13 13 14 14 14 14 15 15 16 15 15
17 18 19 18 19 18 18 19 19 17 16 14 13 13 14 14 16 16 16 17 17 18 18 18 18 17 17 16 15 13 13 14 14 14 14 14 13 14 14 14 15 15 14
17 17 18 18 18 18 18 18 18 18 18 15 14 15 15 15 15 17 17 18 16 16 17 17 17 17 17 17 16 15 14 14 14 14 16 15 16 16 16 16 16 15 15
18 19 19 18 18 17 18 17 18 17 16 16 15 15 15 15 15 16 14 13 13 13 14 14 15 16 16 16 16 15 15 15 15 15 15 15 15 16 15 15 15 15 15
17 18 18 18 18 17 17 17 17 16 15 14 14 14 15 15 14 14 13 12 12 13 13 14 12 12 13 13 14 14 14 14 15 15 15 15 15 15 16 16 17 16 16
19 18 18 17 16 17 16 15 15 16 16 15 13 11 13 14 14 13 13 13 12 12 12 12 13 12 12 12 12 12 12 13 12 12 13 12 13 14 15 16 16 16 16
17 18 17 17 16 16 15 15 15 15 15 15 14 13 12 13 13 13 12 12 12 11 11 11 11 11 11 11 11 10 9 10 10 10 10 11 12 12 12 12 13 13 13
16 16 16 15 15 14 14 14 13 14 14 13 13 13 13 12 12 12 12 11 11 11 11 10 10 11 10 10 9 9 9 8 8 8 8 9 10 9 9 10 10 11 11
15 16 15 14 14 14 14 13 12 12 13 12 12 12 11 11 11 10 10 10 10 10 10 10 10 9 9 9 9 8 7 7 7 8 8 9 9 9 10 10 10 9 10
14 14 13 14 14 13 13 13 12 12 12 11 11 11 11 11 10 10 9 9 9 9 9 8 8 8 8 8 7 6 6 6 6 6 7 7 8 8 9 9 9 9 10
14 13 13 12 12 12 12 12 11 11 11 10 10 9 9 9 9 8 8 8 7 8 7 7 7 7 7 8 6 6 6 6 5 5 5 6 7 7 7 7 7 8 8
Height
814 814 812 811 808 806 803 799 797 793 790 787 784 781 778 774 772 768 765 764 763 764 765 767 768 770 772 776 781 785 786 784 784 781 786 788 790 791 791 793 794 794 794
811 810 809 806 804 802 799 795 792 788 785 782 778 774 770 767 763 760 756 754 753 753 755 757 757 761 763 766 767 765 773 769 763 768 773 777 779 784 784 786 786 787 787
809 808 807 804 800 797 794 790 786 783 780 776 772 767 762 756 752 748 745 743 743 742 743 746 747 750 753 756 757 760 761 763 758 757 760 767 766 773 777 779 779 779 779
806 805 803 800 795 792 788 784 781 778 774 769 765 758 751 745 740 737 733 731 731 732 732 733 736 739 740 744 748 750 754 754 755 755 755 759 759 762 768 770 772 771 771
802 801 798 795 791 787 783 779 775 772 768 763 755 746 738 729 723 722 720 718 718 720 721 723 726 728 731 734 739 742 746 748 749 750 751 754 751 755 758 758 764 763 764
800 798 795 791 787 782 777 774 771 768 763 755 745 733 717 708 706 707 707 708 708 709 711 714 718 720 723 726 729 732 735 738 742 745 746 745 744 749 753 751 755 757 756
797 795 791 786 782 779 774 770 766 761 756 748 737 720 704 698 696 695 697 699 699 700 703 705 710 713 717 720 722 725 729 731 732 735 735 737 738 742 747 746 748 751 750
792 789 786 784 780 775 770 765 760 756 751 742 731 714 702 693 689 687 689 690 690 691 693 697 700 704 708 712 717 719 722 723 723 725 727 730 731 736 739 740 741 746 746
789 787 784 782 776 771 766 761 756 752 747 738 728 715 704 694 685 680 678 678 680 682 685 689 693 697 699 703 708 710 712 712 716 717 721 721 726 728 732 735 735 740 737
785 783 781 777 772 767 764 758 754 749 744 737 725 716 703 693 684 675 669 668 672 676 680 682 685 690 693 697 700 703 704 705 711 711 715 714 719 720 723 728 730 732 729
780 778 775 772 769 765 761 757 753 748 742 734 725 714 703 693 682 671 666 666 667 670 674 678 681 683 686 690 694 697 699 702 704 707 709 712 712 713 713 717 721 724 724
776 774 771 769 767 762 759 757 752 747 742 734 727 715 704 692 683 673 668 667 667 669 672 675 678 679 681 685 689 693 697 698 702 702 703 705 706 706 705 711 713 717 718
771 771 769 766 764 760 758 756 753 746 742 735 728 717 709 698 688 679 671 669 668 669 671 674 677 679 681 684 689 690 692 693 696 697 697 698 699 700 702 705 708 709 712
769 768 766 763 760 758 755 753 751 748 744 738 731 723 714 705 696 686 676 677 677 673 676 677 681 684 686 686 687 688 690 689 689 690 691 692 693 694 695 697 699 703 705
767 765 763 760 758 755 754 752 749 748 745 741 736 728 723 714 706 702 695 694 689 688 681 685 688 690 693 694 694 694 693 692 691 689 689 690 691 692 694 694 695 699 701
763 761 760 758 756 753 752 750 747 747 744 741 738 733 727 723 716 712 708 705 700 695 695 694 695 698 700 702 703 698 701 701 698 698 696 696 696 700 697 698 702 701 704
760 759 757 756 755 752 751 748 747 746 745 743 740 737 733 726 722 717 712 708 707 706 704 703 703 704 706 708 709 709 706 703 707 705 704 703 703 704 703 708 707 707 711
757 756 755 753 753 751 750 747 746 745 745 745 743 740 737 732 727 723 718 715 717 715 713 712 712 713 713 713 714 714 714 712 710 708 708 708 707 707 709 713 714 713 713
754 753 753 751 751 750 748 747 747 747 747 745 745 743 740 737 734 729 727 727 728 725 722 721 721 719 720 719 718 719 718 717 716 716 715 714 713 714 715 718 717 716 717
751 751 751 750 749 750 749 748 749 750 750 749 748 746 744 739 737 738 736 735 733 731 730 731 729 727 727 725 723 724 723 722 720 720 719 719 719 719 718 719 718 716 719
750 750 749 749 748 749 750 750 751 751 751 752 753 753 751 748 748 747 744 744 742 742 741 738 737 737 735 733 731 730 729 728 728 726 726 725 724 723 724 722 720 718 718
748 748 749 749 750 751 751 753 754 755 756 756 757 756 754 754 753 751 751 750 749 748 746 745 744 743 741 739 738 736 735 734 733 733 732 730 731 729 728 726 724 724 724
748 748 749 751 753 754 755 756 758 759 760 760 760 760 759 759 758 758 758 757 756 754 753 750 748 747 746 744 744 742 742 741 738 737 735 734 733 731 730 729 728 727 727
749 749 751 753 755 757 758 759 761 762 763 764 764 764 765 764 763 762 760 759 757 755 753 752 751 750 749 749 748 747 744 742 741 740 738 737 735 734 733 731 731 730 728
750 753 756 757 759 761 762 763 765 766 766 767 766 766 765 764 763 762 762 761 759 758 756 754 753 752 751 750 748 745 743 742 740 739 739 737 736 734 733 731 730 728 725
755 757 758 760 762 764 765 767 768 769 769 770 769 768 767 766 765 765 764 762 761 759 758 756 754 752 750 748 745 743 742 740 738 737 736 737 735 733 731 730 728 726 723
Wind_Speed
8 10 12 12 13 15 16 16 17 18 19 21 23 24 25 25 28 32 33 32 33 33 34 33 33 33 32 30 23 26 29 25 16 31 30 26 21 24 28 20 18 17 18
9 11 13 14 15 15 17 17 17 18 20 21 22 23 25 28 29 33 35 34 35 33 34 32 34 34 35 35 36 39 37 35 31 26 29 28 24 23 21 20 20 19 19
8 10 14 15 15 16 18 19 20 21 22 24 25 26 30 32 32 33 35 36 35 36 35 34 36 35 34 35 34 35 34 32 29 28 28 29 27 22 20 19 20 18 19
9 11 14 16 17 19 20 21 21 22 23 27 30 33 36 37 37 35 36 35 35 36 37 36 36 37 40 36 34 32 27 27 28 26 28 30 24 22 20 19 19 17 19
12 13 16 18 20 20 21 21 21 21 22 27 35 38 43 43 40 36 36 35 32 35 35 36 37 37 39 36 32 29 26 24 23 21 23 22 22 20 22 17 23 17 16
13 14 15 17 20 20 21 20 18 18 23 32 39 41 47 38 35 36 37 32 29 32 33 32 32 32 35 41 45 38 31 28 29 27 27 19 22 23 22 18 20 15 11
12 14 15 19 20 20 20 17 14 18 24 33 37 44 36 29 27 31 32 32 30 30 31 30 29 28 29 27 33 34 36 35 37 31 31 26 22 24 23 20 19 17 16
13 15 16 17 19 19 17 15 15 17 23 30 36 46 39 29 26 26 28 30 31 31 33 31 29 26 25 24 24 25 27 30 32 42 36 28 27 25 25 23 19 19 15
12 14 17 16 17 17 18 17 16 15 22 28 31 46 37 31 24 19 28 30 28 29 29 27 25 25 26 29 27 25 24 27 30 30 30 27 30 28 25 22 18 17 13
11 15 14 16 13 16 17 17 14 11 18 24 33 39 36 31 29 20 10 17 20 22 24 28 32 25 24 28 30 24 24 24 22 21 27 24 28 29 28 28 21 20 19
11 12 13 14 15 14 16 15 12 12 17 25 35 35 37 33 33 28 10 10 16 16 18 18 21 23 24 26 30 24 24 19 20 19 19 21 17 19 25 33 31 26 21
10 12 12 12 12 13 16 19 16 13 16 19 29 30 36 36 38 32 12 4 5 10 12 12 11 13 17 24 22 23 19 17 15 15 17 23 23 22 20 23 32 28 25
11 12 13 13 9 9 13 21 16 14 13 20 18 27 31 34 36 41 21 11 2 8 9 10 11 13 11 3 8 17 23 26 25 21 22 22 23 19 19 20 21 23 22
12 13 12 12 12 10 7 8 7 12 15 15 22 21 27 29 36 43 38 25 14 23 24 28 31 31 29 26 26 24 22 11 9 15 16 17 19 18 20 21 19 20 17
11 11 11 11 11 11 11 9 5 6 10 10 16 16 17 26 29 24 26 26 27 30 28 25 22 22 22 23 26 27 26 28 19 18 16 16 15 12 9 7 12 14 8
10 9 8 10 10 8 10 5 4 1 10 16 17 16 15 16 20 18 13 12 17 18 18 20 22 21 19 19 20 29 26 24 25 22 25 24 23 21 22 20 17 15 10
10 9 10 9 9 6 8 6 6 1 4 13 15 19 23 18 12 15 22 27 25 21 22 21 20 19 17 16 14 13 16 17 14 15 17 14 15 11 14 11 12 14 11
8 12 10 9 6 5 6 5 4 4 5 8 13 21 26 29 30 26 26 27 23 22 20 20 19 17 14 13 12 10 9 7 10 10 12 13 14 13 11 7 6 8 9
8 6 5 3 2 4 5 4 4 6 8 10 9 13 21 26 31 36 36 26 20 22 21 20 18 17 15 14 13 12 12 13 12 12 12 11 11 10 9 6 6 7 5
7 7 4 2 1 1 3 6 7 9 11 13 15 14 14 20 25 23 24 24 24 24 23 21 21 18 16 14 14 12 13 14 14 13 13 11 9 8 7 6 4 4 4
6 4 3 1 3 5 7 10 9 9 10 12 14 15 17 17 17 18 19 20 21 20 19 19 19 18 17 16 16 16 15 15 15 15 16 16 14 12 9 7 7 5 3
5 3 3 5 7 8 11 11 11 9 9 10 9 13 17 16 15 16 16 17 17 17 17 16 15 15 16 17 17 19 17 17 17 16 17 15 13 13 13 12 10 9 10
4 6 8 10 11 12 13 12 11 10 9 9 9 10 12 12 12 13 13 13 13 14 14 14 14 13 13 13 14 14 13 14 14 14 14 13 13 14 13 12 11 10 9
8 10 11 11 10 12 12 12 12 12 10 9 9 10 10 10 10 11 12 12 12 13 14 13 12 13 12 11 11 10 11 12 11 11 12 12 11 12 11 10 9 9 10
12 14 13 12 12 12 12 11 11 10 10 9 9 9 9 9 10 11 11 11 12 12 13 13 13 13 12 11 11 10 13 13 13 13 11 12 12 13 12 12 12 13 12
13 13 13 12 12 11 10 10 9 8 8 7 7 8 8 8 8 9 10 12 13 13 14 13 13 13 13 11 12 15 16 17 17 16 15 13 14 14 14 15 15 16 16
Wind_Direction
323 314 305 302 304 304 300 301 302 304 303 300 297 293 288 283 276 266 256 249 240 234 234 234 231 230 227 227 229 240 238 224 235 261 260 256 251 250 257 253 248 245 253
302 305 305 306 309 303 302 303 302 304 306 303 298 295 290 285 278 272 264 252 241 231 231 228 229 228 226 227 220 226 230 225 216 236 244 246 241 247 249 243 242 247 248
300 305 306 310 310 307 307 304 304 302 303 304 298 294 290 285 281 269 265 258 246 235 225 223 225 224 223 216 224 220 226 234 227 229 243 241 236 240 241 245 241 242 242
295 310 312 318 316 311 305 301 300 303 303 308 303 293 288 281 275 271 262 259 250 243 230 223 226 223 222 219 219 228 238 246 244 236 237 239 229 227 231 240 243 239 239
316 314 314 315 317 312 308 307 305 306 309 310 307 294 291 279 266 260 257 254 248 244 234 227 226 230 227 223 225 236 236 241 238 244 232 231 231 219 223 226 242 241 237
307 307 315 315 314 315 314 308 311 316 321 322 319 305 299 280 263 253 253 251 251 241 234 228 229 231 229 232 240 244 246 242 241 236 232 225 227 225 234 225 235 227 238
298 302 312 320 314 312 311 310 318 328 332 330 327 331 313 294 273 265 252 249 249 244 235 234 229 228 227 230 237 242 241 238 241 239 233 228 230 223 231 219 223 228 221
310 311 309 309 308 313 314 325 318 325 337 334 330 346 335 303 287 270 257 248 244 240 233 235 232 228 221 220 224 223 231 241 243 237 235 234 229 229 225 221 221 230 235
300 298 297 308 314 326 327 329 321 316 334 337 339 350 330 334 341 319 265 252 239 235 233 229 224 227 225 225 222 228 233 238 236 236 235 243 246 241 232 225 217 215 220
283 290 308 315 314 318 326 336 332 335 329 335 345 350 337 336 348 347 308 235 221 221 224 224 231 224 225 225 222 226 232 234 227 231 234 241 242 243 238 236 229 226 232
290 302 317 327 323 321 344 342 331 332 328 348 353 348 342 344 353 2 340 232 214 213 211 214 224 231 232 231 224 225 232 235 223 229 246 238 240 238 233 233 229 226 229
299 306 311 325 335 350 8 354 349 339 330 342 358 344 346 351 0 11 0 214 233 221 214 224 229 239 239 224 226 227 234 237 249 234 225 238 238 234 226 227 235 228 229
300 297 302 316 342 3 7 335 338 345 340 350 346 343 342 351 359 13 27 38 101 151 146 126 105 89 84 117 255 251 248 247 244 238 241 238 232 234 229 225 229 232 229
283 291 302 313 322 335 333 305 321 343 343 0 344 336 341 353 9 18 23 44 48 83 96 92 87 84 80 78 66 54 45 25 247 235 231 232 224 231 218 210 195 194 187
272 283 302 317 323 334 325 293 307 342 351 356 349 342 350 1 9 6 31 48 49 65 70 72 70 72 70 66 64 56 52 32 42 69 76 81 76 75 80 143 158 174 165
264 285 302 313 311 315 318 327 346 296 31 34 46 26 10 18 24 35 57 49 56 60 61 66 72 71 70 67 64 61 55 48 40 54 65 71 70 59 64 52 66 73 64
256 285 296 298 295 305 308 333 350 43 45 44 50 53 51 49 40 51 58 59 59 55 56 57 60 62 63 65 63 71 70 58 47 56 67 83 92 89 81 89 77 85 79
260 282 279 284 271 298 308 330 354 40 47 29 41 57 62 59 63 63 56 51 39 41 43 47 51 51 54 67 70 67 70 75 75 55 53 54 59 64 66 70 88 108 116
263 244 284 311 249 302 13 47 55 72 70 72 48 41 51 58 55 57 56 50 43 44 40 36 33 39 38 45 49 51 53 52 49 47 47 45 44 59 70 61 67 73 68
216 236 253 269 244 358 50 80 89 88 83 67 48 35 28 38 42 40 40 38 37 36 35 35 33 37 35 39 45 42 42 37 36 37 36 34 30 33 30 19 37 71 59
205 217 210 108 70 82 91 96 96 90 75 67 61 53 57 51 41 40 40 38 39 37 33 32 32 33 37 40 42 44 46 50 44 40 39 33 30 30 18 17 6 354 314
197 169 100 79 86 94 100 98 93 83 81 76 61 43 47 50 46 42 36 33 31 30 29 28 30 34 37 37 36 47 50 47 39 33 33 34 23 23 21 25 19 7 2
182 123 106 99 102 101 95 91 84 81 75 66 51 45 43 42 38 33 27 23 21 20 19 23 26 27 29 29 29 30 25 22 19 16 16 12 10 8 8 358 352 350 344
130 113 111 108 103 99 92 85 80 77 75 68 61 53 45 38 33 29 24 18 15 13 13 13 14 15 13 14 16 19 20 15 10 3 2 356 350 347 341 338 335 333 322
107 103 97 94 90 87 87 83 77 67 59 49 39 29 21 16 15 14 11 8 5 4 2 1 0 357 353 351 356 359 349 347 347 347 343 335 331 328 324 320 319 315 311
105 102 97 94 92 90 87 81 69 54 42 29 21 14 9 7 7 2 357 356 352 345 342 338 336 337 335 333 322 325 323 323 325 325 328 321 320 318 318 315 313 309 305